Home > Weather > Wernigerode > Past weeks

Flag for Germany Weather for the Past 2 Weeks in Wernigerode, Saxony-Anhalt, Germany

Now
36 °F

Passing clouds.


Feels Like: 26 °F
Forecast: 31 / 35 °F
Wind: 15 mph from Southwest

Location: Erfurt-Bindersleben

Current Time: Feb 10, 2016 at 4:18:01 AM

Latest Report: Feb 10, 2016 at 3:20 AM


Visibility: N/A

Pressure: 29.24 "Hg

Humidity: 81%

Dew point: 30 °F

Location of WernigerodeLocation

Historic Weather in Wernigerode — Graph

°F

Wernigerode Temperature Yesterday

Maximum temperature yesterday: 46 °F (at 4:20 PM)
Minimum temperature yesterday: 37 °F (at 11:50 PM)
Average temperature yesterday: 44 °F

High & Low Weather Summary for the Past Weeks

 TemperatureHumidityPressure
High54 °F (Feb 1, 1:20 PM)100% (Feb 1, 5:20 AM)30.30 "Hg (Feb 1, 5:20 AM)
Low32 °F (Feb 5, 4:20 AM)47% (Feb 7, 1:20 PM)28.97 "Hg (Feb 9, 7:20 PM)
Average43 °F77%29.91 "Hg
* Reported Jan 26 2:20 AM — Feb 10 2:20 AM, Wernigerode, Weather by CustomWeather, © 2016

Note: Actual official high and low records may vary slightly from our data, if they occured in-between our weather recording intervals... More about our weather records

Advertising

Wernigerode Weather History for the Previous 24 Hours

 ConditionsComfort  
Time TempWeatherWind HumidityBarometerVisibility
2:20 AM
Wed, Feb 10
37 °FPassing clouds.14 mph81%29.24 "HgN/A
1:50 AM36 °FPassing clouds.18 mph87%29.24 "HgN/A
1:20 AM36 °FPassing clouds.23 mph87%29.21 "HgN/A
12:20 AM37 °FPassing clouds.25 mph81%29.21 "HgN/A
11:50 PM
Tue, Feb 9
37 °FPassing clouds.22 mph81%29.15 "HgN/A
11:20 PM39 °FPassing clouds.26 mph75%29.12 "HgN/A
10:20 PM41 °FPassing clouds.33 mph76%29.06 "HgN/A
9:50 PM46 °FPassing clouds.30 mph66%29.00 "HgN/A
9:20 PM46 °FPartly cloudy.25 mph66%29.00 "HgN/A
8:50 PM46 °FPartly cloudy.26 mph76%28.97 "HgN/A
8:20 PM46 °FPassing clouds.24 mph76%28.97 "HgN/A
7:50 PM46 °FClear.18 mph82%28.97 "Hg10 mi
7:20 PM45 °FSleet. Passing clouds.18 mph87%28.97 "HgN/A
6:50 PM46 °FRain. Mostly cloudy.17 mph93%29.03 "HgN/A
6:20 PM46 °FRain. Partly cloudy.14 mph87%29.03 "HgN/A
5:50 PM46 °FLight rain. Partly cloudy.15 mph87%29.03 "HgN/A
4:50 PM46 °FLight rain. Broken clouds.23 mph87%29.06 "HgN/A
4:20 PM46 °FLight rain. Broken clouds.21 mph82%29.06 "HgN/A
3:20 PM45 °FBroken clouds.25 mph81%29.12 "HgN/A
2:20 PM43 °FLight rain. Broken clouds.24 mph81%29.18 "HgN/A
1:50 PM43 °FLight rain. More clouds than sun.18 mph81%29.24 "HgN/A
1:20 PM43 °FLight rain. More clouds than sun.20 mph81%29.30 "HgN/A
12:50 PM45 °FLight rain. Partly sunny.21 mph76%29.30 "HgN/A
12:20 PM45 °FBroken clouds.16 mph71%29.33 "HgN/A
11:20 AM45 °FPartly sunny.15 mph71%29.42 "HgN/A
10:50 AM45 °FPartly sunny.20 mph71%29.45 "HgN/A
10:20 AM45 °FBroken clouds.17 mph66%29.45 "HgN/A
9:50 AM45 °FBroken clouds.21 mph71%29.47 "HgN/A
9:20 AM43 °FPartly sunny.20 mph71%29.47 "HgN/A
8:50 AM43 °FPartly sunny.17 mph71%29.47 "HgN/A
8:20 AM41 °FPartly sunny.17 mph76%29.47 "HgN/A
7:50 AM41 °FPartly sunny.20 mph76%29.47 "HgN/A
7:20 AM41 °FPassing clouds.16 mph70%29.50 "HgN/A
6:50 AM43 °FPassing clouds.22 mph66%29.50 "HgN/A
6:20 AM43 °FPassing clouds.25 mph66%29.50 "HgN/A
5:50 AM43 °FPassing clouds.25 mph66%29.50 "HgN/A
5:20 AM43 °FPassing clouds.28 mph66%29.50 "HgN/A
4:50 AM43 °FPassing clouds.31 mph61%29.47 "HgN/A
4:20 AM43 °FClear.30 mph61%29.47 "Hg10 mi
Weather by CustomWeather, © 2016

See weather overviewHow to use our weather pages